Location: *
(21.4000°S, 43.5833°E)
Time: 23:13:40
(UTC+00:00)

Daily predictions for brighter satellites

Satellite Brightness Start Highest point End
(mag) Time Altitude Azimuth Time Altitude Azimuth Time Altitude Azimuth
Cosmos 44 Rocket 3.7 15:23:30 10° SSW 15:28:32 52° ESE 15:33:30 10° NE
Cosmos 1271 Rocket 3.0 15:25:35 10° N 15:29:27 49° E 15:33:20 10° SSE
Cosmos 1241 Rocket 4.4 15:25:56 10° NNW 15:32:06 78° ENE 15:38:26 10° SSE
SMAP 3.9 15:28:54 10° S 15:33:30 57° WSW 15:38:03 10° NNW
ADEOS Rocket 3.8 15:28:21 10° NE 15:33:56 31° ESE 15:39:05 10° SSE
Okean-O 2.6 15:29:43 10° SSE 15:34:11 85° E 15:38:38 10° N
Cosmos 1943 Rocket 2.8 15:29:15 10° S 15:34:15 35° ESE 15:39:14 10° NE
BREEZE M DEB (TANK) 3.8 15:36:18 10° SSW 15:38:57 34° SE 15:44:57 10° ENE
Cosmos-2242 3.8 15:37:44 10° SSE 15:41:42 31° E 15:45:37 10° NE
Cosmos 1727 Rocket 4.3 15:38:36 10° S 15:44:54 73° W 15:51:04 10° N
NOAA 12 4.2 15:45:12 10° S 15:50:29 81° WSW 15:55:44 10° NNW
Cosmos 1703 3.6 15:50:43 10° NNE 15:54:23 42° E 15:58:06 10° SSE
Ariane Rocket 4.4 15:51:30 10° ESE 15:54:37 16° E 15:56:15 14° ENE
GPS 2-15 Rocket1 3.4 15:58:21 10° WNW 16:03:07 55° N 16:06:11 21° E
CZ-2C R/B 3.8 15:58:44 10° NNE 16:03:25 88° WNW 16:08:15 10° SSW
Cosmos 2123 Rocket 4.4 15:57:58 10° SSE 16:03:57 42° E 16:09:52 10° NNE
Cosmos 1570 Rocket 4.3 15:59:16 10° SSW 16:04:32 73° WNW 16:09:47 10° N
GPS 2-04 Rocket1 2.7 16:01:14 10° WNW 16:04:40 66° SSW 16:07:55 12° SE
Cosmos 1939 Rocket 3.8 16:01:35 10° SE 16:04:46 24° E 16:05:54 21° NE
CSL-04 Rocket 3.8 15:59:36 10° SSE 16:05:02 54° ENE 16:10:27 10° N
GPS 2-14 Rocket1 4.4 16:04:57 10° WNW 16:08:26 25° NNW 16:10:50 16° NNE
BREEZE-M R/B 3.8 16:04:28 10° NW 16:10:25 53° SW 16:14:19 10° SSE
Meteor 1-11 4.4 16:04:46 10° N 16:10:25 54° E 16:16:05 10° SSE
CZ-4C R/B 3.3 16:04:54 10° N 16:12:46 45° ENE 16:20:11 10° SE
Meteor 2-10 Rocket 4.4 16:09:09 10° SSE 16:14:23 34° E 16:16:59 23° NE
Cosmos 1605 Rocket 3.9 16:08:35 10° N 16:14:35 67° E 16:20:41 10° S
Cosmos 2208 Rocket 4.4 16:09:46 10° SSW 16:15:09 69° WNW 16:20:23 10° N
Cosmos 1455 2.8 16:13:34 10° SSE 16:17:11 36° E 16:17:58 33° ENE
Cosmos 968 Rocket 3.6 16:13:48 10° NNW 16:19:00 78° WSW 16:24:12 10° S
Cosmos 841 Rocket 3.5 16:18:10 10° SSW 16:23:22 80° WNW 16:28:32 10° N
Cosmos 1354 Rocket 4.1 16:19:29 10° NNW 16:24:44 79° WSW 16:30:04 10° S
Delta 198 3.6 16:24:13 10° WSW 16:27:50 49° S 16:28:48 37° SE
ISS -1.3 16:26:26 10° W 16:29:09 23° SW 16:31:54 10° S
CZ-4 R/B 2.7 16:25:39 10° S 16:29:25 42° WSW 16:33:14 10° NNW
YAOGAN 1 3.2 16:29:55 10° S 16:34:12 57° WSW 16:38:26 10° NNW
CZ-2D R/B 3.1 16:30:54 10° SSE 16:34:45 81° E 16:37:46 16° N
CZ-2C R/B 3.8 16:40:55 25° SE 16:40:55 25° SE 16:44:18 10° SSE
Cosmos 2369 Rocket 2.9 16:36:45 10° SSW 16:42:20 54° WNW 16:47:27 12° N
Cosmos 1842 Rocket 4.2 16:40:35 10° S 16:43:49 39° SE 16:43:49 39° SE
DMSP B5D2-2 4.1 16:45:27 51° ENE 16:46:15 57° ESE 16:51:23 10° S
Mugunghwa Rocket 4.1 16:43:57 10° WNW 16:51:09 79° SSW 16:53:53 38° ESE
H-2A ROCKET BODY 3.1 16:32:53 10° WSW 16:51:12 53° S 16:53:19 35° SE
GPS 2-17 Rocket1 3.8 16:49:57 10° W 16:54:34 42° NNW 16:54:34 42° NNW
Cosmos 540 Rocket 4.5 16:50:51 10° SSW 16:55:43 44° W 16:59:19 17° NNW
Cosmos 2100 Rocket 3.9 16:56:36 55° ENE 16:56:55 56° E 17:02:58 10° SSE
USA 215 3.7 16:51:14 10° SSE 16:57:43 62° SW 17:04:09 10° NW
Cosmos 2221 4.1 17:01:35 10° S 17:03:30 25° SSE 17:03:30 25° SSE
Centaur D-1A AC-35 3.7 16:57:57 10° W 17:06:35 33° NW 17:07:25 31° NNW
CZ-3B R/B 4.4 16:31:11 10° W 17:12:16 77° S 17:17:05 38° ESE
Cosmos 1656 Rocket 3.7 17:06:48 10° SSW 17:12:31 78° WNW 17:12:56 73° NNW
Ariane Rocket 4.4 17:28:53 10° S 17:33:30 36° WSW 17:36:27 19° NW
COSMOS 2406 4.4 17:36:08 34° S 17:36:08 34° S 17:39:19 10° S
ATLAS CENTAUR Rocket 3.9 16:53:05 10° W 18:10:43 65° SSW 18:12:12 59° SSE
SL-16 R/B 3.8 23:45:09 10° S 23:48:22 33° S 23:48:22 33° S
Cosmos 2263 Rocket 3.5 23:53:31 36° E 23:53:31 36° E 23:57:52 10° SE
IDEFIX/ARIANE 42P 4.1 23:56:54 29° SSE 23:56:54 29° SSE 23:59:38 10° S
